Dewpoint
52 52 52 52 52 52 52 53 53 54 53 53 53 53 53 53 53 54 54 55 55 55 55 55 55 55 53 45 35 48 66 64 47 25 20 16 12 9 8 6 6 3 2 7 12 14 16
52 52 52 52 52 52 52 52 53 53 53 53 54 53 53 53 53 54 55 55 55 55 55 55 55 55 48 30 38 50 52 53 33 18 23 17 11 7 8 6 6 6 4 4 5 7 15
52 52 52 52 52 52 52 52 52 53 53 53 53 53 54 53 53 53 55 55 55 55 56 57 55 52 44 36 33 45 39 35 32 22 23 21 13 11 12 6 5 5 3 4 5 7 10
52 52 52 52 52 52 52 52 51 51 53 53 53 53 53 53 53 53 54 55 55 55 58 55 57 49 44 39 31 30 33 31 29 21 21 17 12 14 14 12 7 9 8 3 4 6 9
51 52 52 52 52 52 52 52 51 51 52 53 53 53 53 53 53 53 54 54 54 57 56 55 52 49 43 34 22 26 27 27 23 22 24 12 10 15 13 7 8 15 9 3 3 5 9
51 51 51 52 52 52 52 51 52 52 51 53 53 52 52 53 53 54 54 53 55 54 55 51 48 45 43 28 15 17 27 28 28 24 16 12 11 12 9 9 9 9 10 7 6 6 9
51 51 51 51 51 51 51 51 52 52 52 52 52 52 52 53 53 53 51 46 46 47 46 46 41 38 25 22 22 23 25 25 25 17 13 12 10 11 10 10 12 12 11 12 14 12 12
51 51 51 51 51 51 52 52 52 52 52 52 52 52 52 52 53 53 50 41 25 25 28 33 42 26 22 21 19 18 24 24 25 24 17 17 11 13 16 15 16 13 11 11 12 11 15
50 51 51 51 51 52 51 51 51 51 51 51 51 51 52 52 52 50 42 32 24 29 30 32 26 20 21 20 19 20 24 25 24 25 24 22 19 17 16 13 12 9 9 10 10 11 14
50 50 50 51 51 51 50 50 51 51 51 51 51 51 51 51 48 41 36 30 27 33 30 30 18 20 19 18 20 20 25 25 23 22 22 19 19 16 15 15 12 11 14 13 10 11 10
50 50 50 51 51 51 50 50 50 51 51 50 50 50 51 50 45 42 33 30 29 36 30 22 18 20 17 15 15 17 20 21 22 21 21 20 17 17 21 16 14 14 20 20 21 20 21
48 49 49 50 50 51 50 50 50 50 50 50 50 50 50 50 48 44 41 34 34 30 25 16 18 18 14 15 17 20 22 23 22 23 24 22 19 22 23 18 19 21 20 23 23 19 17
48 48 49 49 50 50 50 50 50 50 50 49 49 49 47 44 45 40 37 38 31 24 21 14 12 15 18 18 18 21 21 21 22 25 27 29 26 30 26 21 19 22 28 19 19 18 19
47 47 48 48 49 50 50 49 49 49 49 48 47 48 48 42 42 38 42 38 27 24 18 15 13 13 15 18 19 23 23 22 26 30 26 28 30 32 27 26 23 22 25 22 23 23 20
46 47 47 48 48 50 49 49 49 49 48 46 47 47 47 47 45 43 41 34 26 27 20 14 12 12 14 16 20 20 23 33 35 32 30 29 31 36 33 27 23 23 22 28 25 25 24
46 46 47 47 49 50 49 49 49 49 48 46 44 45 43 44 43 45 41 35 32 27 22 19 18 17 16 17 17 13 17 35 33 31 32 32 30 31 33 28 26 23 35 31 33 28 26
46 46 46 47 48 49 49 49 49 49 47 46 48 46 44 41 45 43 36 33 30 23 27 28 26 30 23 22 22 18 28 33 32 32 30 33 34 32 33 29 24 23 34 39 35 35 28
47 46 46 46 47 48 49 49 49 49 47 42 44 41 41 38 37 40 34 34 33 24 26 26 31 30 29 32 29 22 32 35 33 32 32 41 35 33 32 31 26 20 23 35 29 22 38
47 46 46 46 47 48 49 48 48 48 48 42 40 41 42 40 32 32 37 33 29 26 30 32 32 33 33 30 30 30 33 33 32 38 37 34 36 31 24 23 25 25 33 38 38 37 29
48 47 46 46 46 48 48 48 48 48 48 45 42 38 41 42 38 37 37 35 32 26 29 30 33 33 34 33 32 31 31 37 31 35 46 39 32 30 25 24 24 25 26 39 39 35 32
48 48 46 46 45 46 48 48 48 48 47 46 45 41 41 35 35 37 36 33 31 33 30 31 34 31 32 34 32 30 34 36 32 44 35 33 30 32 32 31 28 26 23 23 33 33 29
48 48 47 46 45 46 46 48 48 48 46 47 42 39 39 35 39 36 37 32 30 28 35 31 32 33 34 34 36 35 37 38 39 35 33 36 33 36 34 32 28 25 23 21 19 19 18
48 48 47 46 45 45 45 47 48 49 46 44 44 43 41 40 37 34 34 35 33 34 32 30 31 32 35 33 34 33 33 36 37 35 37 37 35 34 31 32 28 25 26 25 23 24 23
49 48 47 47 46 45 44 45 47 48 46 41 45 43 39 34 34 32 32 29 28 31 32 31 31 33 36 33 33 32 31 32 31 30 35 35 34 33 31 30 24 26 27 25 23 24 28
49 49 47 47 46 45 43 44 46 48 48 40 43 43 41 36 35 33 31 31 30 32 33 32 34 38 36 30 28 26 26 28 27 26 28 36 35 30 28 28 27 28 28 28 27 31 43
50 49 48 48 47 46 43 43 45 46 48 42 43 48 42 37 35 34 33 33 30 31 32 33 37 39 33 27 24 22 20 27 27 29 29 35 35 32 29 27 24 30 32 34 38 33 47
50 49 49 48 47 46 44 42 44 45 46 42 39 48 41 37 37 37 34 32 33 32 32 34 34 34 34 28 24 22 22 23 22 23 28 31 32 29 28 27 28 32 37 42 32 39 48
50 49 49 49 47 46 44 42 43 44 44 41 40 49 41 37 35 36 33 35 33 34 31 36 32 33 32 28 25 26 25 25 25 27 28 31 32 30 28 26 25 44 44 40 47 48 45
50 49 49 49 48 46 45 43 43 43 44 43 38 47 45 38 35 35 34 34 35 36 35 36 35 34 36 30 30 30 28 28 29 26 31 28 33 34 36 35 42 43 44 51 49 47 45
Lifted_Index
13 13 14 14 14 14 14 14 14 14 14 15 15 15 15 15 15 15 15 15 15 14 14 14 14 14 12 10 9 8 7 8 10 11 10 9 9 8 7 6 6 5 4 4 3 2 2
13 13 13 14 14 14 14 15 14 14 15 15 15 15 15 15 15 15 15 15 15 14 14 14 14 13 12 9 8 8 7 8 10 10 10 9 9 8 7 6 6 5 4 4 3 3 2
13 13 13 14 14 14 15 15 15 15 15 15 15 15 15 15 15 15 15 15 14 14 13 13 13 12 10 9 8 8 8 9 9 10 10 9 8 8 7 6 5 5 4 4 3 3 3
13 13 14 14 14 14 15 15 15 14 14 14 14 14 15 15 14 14 14 14 14 13 13 12 12 11 9 8 8 8 8 8 9 9 9 9 8 8 7 6 5 4 4 3 3 3 2
13 14 14 14 14 14 14 14 14 14 14 13 13 14 14 14 14 13 13 13 12 12 11 11 10 8 7 8 8 8 8 8 8 8 9 9 8 7 6 5 4 3 3 2 2 2 2
14 14 14 14 14 14 14 14 13 13 13 13 13 13 13 13 13 12 11 10 10 9 8 8 7 6 6 7 8 8 8 7 7 7 8 7 6 5 5 4 3 2 2 1 0 1 1
14 14 14 14 14 14 14 13 13 12 12 12 12 12 13 13 12 11 10 9 8 7 6 6 5 6 6 7 7 8 7 7 6 6 6 6 4 3 3 2 2 1 1 1 0 0 -0
14 14 14 14 14 14 13 12 12 12 12 12 12 12 12 12 11 10 9 8 8 7 6 5 5 6 6 7 7 7 7 6 6 5 5 4 3 2 2 1 1 1 1 1 1 0 0
14 14 14 14 13 13 12 12 12 11 11 11 11 11 11 11 10 9 8 8 8 8 6 5 5 6 6 6 6 6 6 5 5 4 4 3 2 1 1 1 1 2 1 1 1 1 0
14 14 14 13 12 12 11 11 11 11 11 11 11 11 11 10 9 7 7 8 8 7 6 5 5 5 5 5 5 5 5 5 4 4 3 2 1 0 1 1 1 1 1 1 1 1 1
14 14 14 13 12 11 11 11 11 11 10 10 10 10 10 9 7 6 6 7 7 6 4 4 5 5 5 5 5 4 4 4 4 3 3 1 0 0 1 1 1 1 1 1 1 1 1
15 14 14 13 12 11 11 11 11 10 10 10 10 10 10 8 6 5 6 6 6 4 3 3 4 4 4 4 4 4 4 4 3 3 2 1 0 -0 0 1 1 1 1 1 1 1 1
15 14 14 13 12 11 11 10 10 10 10 10 9 9 9 8 6 5 6 5 4 3 2 3 3 3 3 2 2 2 3 3 2 2 1 0 -0 -0 -0 0 1 1 1 1 1 0 0
15 15 14 13 12 11 11 10 10 10 10 9 9 8 8 7 6 6 5 4 3 3 3 3 3 3 2 1 1 1 1 1 1 1 1 0 -0 -0 -0 0 0 0 0 0 0 0 0
15 15 14 14 13 12 11 11 10 10 10 9 8 8 7 6 6 5 5 4 3 3 4 3 3 3 2 1 1 1 1 -0 -0 0 1 1 1 0 0 0 0 0 0 0 -0 0 0
15 15 14 14 14 13 12 11 10 10 10 9 8 7 5 5 5 5 4 4 4 4 4 4 3 3 2 1 1 1 0 -1 -1 0 1 1 1 1 0 0 0 0 0 0 0 0 0
15 14 14 14 14 13 12 11 10 10 10 9 8 6 5 5 5 5 4 4 4 5 5 4 4 3 2 2 2 2 1 -0 0 1 1 1 1 1 1 1 1 0 0 0 0 0 -0
15 14 14 14 14 13 12 10 10 9 9 9 7 5 5 5 5 5 4 4 4 5 5 5 4 4 3 3 2 2 1 1 1 2 2 2 1 1 1 1 1 1 1 1 1 0 0
14 14 14 14 14 13 12 10 9 9 9 9 7 6 5 5 5 5 4 4 4 5 5 5 4 4 3 3 3 2 2 2 2 3 3 3 2 1 1 1 2 2 1 1 1 0 0
14 14 14 14 13 13 12 10 9 9 9 8 7 6 5 5 5 4 4 3 4 4 5 5 4 4 3 3 3 3 2 2 3 3 3 3 3 2 1 2 2 2 2 1 1 1 1
13 13 13 13 13 13 12 10 9 9 9 8 7 6 5 5 5 4 4 4 4 4 4 5 5 4 4 3 3 3 2 2 3 3 3 3 3 2 2 2 2 2 2 2 2 2 1
13 13 13 13 13 12 11 10 9 9 9 8 7 6 6 6 5 5 4 4 4 4 5 5 5 5 4 4 4 3 2 2 2 3 3 3 3 2 2 2 3 3 3 3 3 2 2
13 13 13 13 13 12 11 10 9 9 9 8 8 8 7 7 6 5 5 4 4 5 5 5 5 5 5 4 4 3 3 3 3 3 3 3 3 3 3 3 3 3 3 3 3 2 2
12 13 13 13 13 12 11 10 9 9 9 9 9 8 8 7 6 5 5 5 5 5 6 6 6 6 6 5 5 4 4 4 3 3 3 3 3 3 3 3 3 3 3 3 2 2 1
12 12 13 13 13 12 11 10 9 9 9 9 9 9 8 7 7 6 5 5 6 6 6 6 7 7 7 6 6 5 5 4 4 4 3 3 3 3 3 3 3 3 3 2 2 1 0
12 12 12 13 13 12 11 10 9 9 9 9 9 9 9 8 7 7 6 6 6 7 6 7 7 8 7 6 5 5 5 4 4 3 3 3 3 3 3 3 3 3 3 2 1 1 -0
11 12 12 12 12 12 11 10 9 9 9 10 10 10 9 8 8 7 7 6 7 7 6 7 7 8 8 6 5 4 4 4 4 3 2 2 2 3 3 3 3 3 2 1 1 0 -0
11 11 12 12 12 11 10 10 10 10 10 10 10 10 10 9 8 8 8 7 7 7 7 6 7 8 8 6 5 4 4 4 4 3 2 2 1 2 2 2 2 2 1 0 0 0 0
11 11 12 12 11 11 10 10 10 10 10 10 10 10 10 9 9 9 8 8 8 8 7 6 6 7 7 7 6 5 4 4 4 3 2 2 1 0 1 1 1 1 1 0 0 0 0